Time,TemperatureF,DewpointF,PressureIn,WindDirection,WindDirectionDegrees,WindSpeedMPH,WindSpeedGustMPH,Humidity,HourlyPrecipIn,Conditions,Clouds,dailyrainin,SoftwareType,DateUTC
2013-03-24 00:04:00,43.6,31.0,29.86,SSW,193,2.0,0.0,61,0.00,,SKC,0.00,VWS V14.01,2013-03-24 04:04:00,
2013-03-24 00:08:00,43.7,31.1,29.87,South,184,1.0,0.0,61,0.00,,SKC,0.00,VWS V14.01,2013-03-24 04:08:00,
2013-03-24 00:14:00,43.8,30.8,29.88,SSE,167,4.0,0.0,60,0.00,,SKC,0.00,VWS V14.01,2013-03-24 04:14:00,
2013-03-24 00:20:00,44.1,31.1,29.88,SSE,165,2.0,0.0,60,0.00,,SKC,0.00,VWS V14.01,2013-03-24 04:20:00,
2013-03-24 00:25:00,44.1,31.5,29.88,SE,142,1.0,0.0,61,0.00,,SKC,0.00,VWS V14.01,2013-03-24 04:25:00,
2013-03-24 00:30:00,44.0,31.4,29.88,SE,143,0.0,0.0,61,0.00,,SKC,0.00,VWS V14.01,2013-03-24 04:30:00,
2013-03-24 00:34:00,43.8,31.6,29.86,South,191,1.0,0.0,62,0.00,,SKC,0.00,VWS V14.01,2013-03-24 04:34:00,
2013-03-24 00:40:00,43.7,31.5,29.86,SE,125,1.0,0.0,62,0.00,,SKC,0.00,VWS V14.01,2013-03-24 04:40:00,
2013-03-24 00:45:00,43.5,31.4,29.86,South,179,2.0,0.0,62,0.00,,SKC,0.00,VWS V14.01,2013-03-24 04:45:00,
2013-03-24 00:50:00,43.3,31.2,29.87,SE,134,1.0,0.0,62,0.00,,SKC,0.00,VWS V14.01,2013-03-24 04:50:00,
2013-03-24 00:55:00,43.1,31.4,29.86,South,182,1.0,0.0,63,0.00,,SKC,0.00,VWS V14.01,2013-03-24 04:55:00,
2013-03-24 01:00:00,42.9,31.6,29.86,SSW,194,0.0,0.0,64,0.00,,SKC,0.00,VWS V14.01,2013-03-24 05:00:00,
2013-03-24 01:06:00,42.7,31.4,29.86,ESE,115,0.0,0.0,64,0.00,,SKC,0.00,VWS V14.01,2013-03-24 05:06:00,
2013-03-24 01:12:00,42.4,31.5,29.87,SSE,165,3.0,0.0,65,0.00,,SKC,0.00,VWS V14.01,2013-03-24 05:12:00,
2013-03-24 01:18:00,42.5,32.0,29.87,SSE,167,3.0,0.0,66,0.00,,SKC,0.00,VWS V14.01,2013-03-24 05:18:00,
2013-03-24 01:24:00,42.6,32.0,29.86,SSE,159,0.0,0.0,66,0.00,,SKC,0.00,VWS V14.01,2013-03-24 05:24:00,
2013-03-24 01:30:00,42.6,32.0,29.86,South,176,1.0,0.0,66,0.00,,SKC,0.00,VWS V14.01,2013-03-24 05:30:00,
2013-03-24 01:35:00,42.6,32.0,29.86,ESE,122,0.0,0.0,66,0.00,,SKC,0.00,VWS V14.01,2013-03-24 05:35:00,
2013-03-24 01:40:00,42.5,32.0,29.86,SSW,204,1.0,0.0,66,0.00,,SKC,0.00,VWS V14.01,2013-03-24 05:40:00,
2013-03-24 01:45:00,42.5,32.0,29.86,SE,142,1.0,0.0,66,0.00,,SKC,0.00,VWS V14.01,2013-03-24 05:45:00,
2013-03-24 01:50:00,42.5,32.0,29.85,East,97,0.0,0.0,66,0.00,,SKC,0.00,VWS V14.01,2013-03-24 05:50:00,
2013-03-24 01:55:00,42.5,32.3,29.85,ESE,117,0.0,0.0,67,0.00,,SKC,0.00,VWS V14.01,2013-03-24 05:55:00,
2013-03-24 02:00:00,42.3,32.1,29.85,ESE,117,0.0,0.0,67,0.00,,SKC,0.00,VWS V14.01,2013-03-24 06:00:00,
2013-03-24 02:05:00,42.2,32.4,29.85,ESE,117,0.0,0.0,68,0.00,,SKC,0.00,VWS V14.01,2013-03-24 06:05:00,
2013-03-24 02:10:00,42.2,32.4,29.85,SW,224,0.0,0.0,68,0.00,,SKC,0.00,VWS V14.01,2013-03-24 06:10:00,
2013-03-24 02:15:00,42.4,32.6,29.84,WSW,257,2.0,0.0,68,0.00,,SKC,0.00,VWS V14.01,2013-03-24 06:15:00,
2013-03-24 02:20:00,42.3,32.9,29.85,WSW,257,0.0,0.0,69,0.00,,SKC,0.00,VWS V14.01,2013-03-24 06:20:00,
2013-03-24 02:25:00,42.1,32.7,29.84,WSW,257,1.0,0.0,69,0.00,,SKC,0.00,VWS V14.01,2013-03-24 06:25:00,
2013-03-24 02:30:00,42.0,32.6,29.85,WSW,257,0.0,0.0,69,0.00,,SKC,0.00,VWS V14.01,2013-03-24 06:30:00,
2013-03-24 02:35:00,41.9,32.8,29.85,WSW,257,1.0,0.0,70,0.00,,SKC,0.00,VWS V14.01,2013-03-24 06:35:00,
2013-03-24 02:40:00,41.9,32.8,29.86,WSW,257,0.0,0.0,70,0.00,,SKC,0.00,VWS V14.01,2013-03-24 06:40:00,
2013-03-24 02:45:00,41.8,32.8,29.87,WSW,256,0.0,0.0,70,0.00,,SKC,0.00,VWS V14.01,2013-03-24 06:45:00,
2013-03-24 02:50:00,41.8,33.1,29.88,WSW,239,1.0,0.0,71,0.00,,SKC,0.00,VWS V14.01,2013-03-24 06:50:00,
2013-03-24 02:55:00,41.8,33.5,29.88,WSW,239,0.0,0.0,72,0.00,,SKC,0.00,VWS V14.01,2013-03-24 06:55:00,
2013-03-24 03:00:00,41.8,33.8,29.88,WSW,239,0.0,0.0,73,0.00,,SKC,0.00,VWS V14.01,2013-03-24 07:00:00,
2013-03-24 03:05:00,41.8,33.5,29.89,West,274,1.0,0.0,72,0.00,,SKC,0.00,VWS V14.01,2013-03-24 07:05:00,
2013-03-24 03:10:00,42.1,33.7,29.90,WNW,282,0.0,0.0,72,0.00,,SKC,0.00,VWS V14.01,2013-03-24 07:10:00,
2013-03-24 03:15:00,42.2,33.5,29.89,West,278,1.0,0.0,71,0.00,,SKC,0.00,VWS V14.01,2013-03-24 07:15:00,
2013-03-24 03:20:00,42.3,33.6,29.89,SW,235,0.0,0.0,71,0.00,,SKC,0.00,VWS V14.01,2013-03-24 07:20:00,
2013-03-24 03:25:00,42.5,33.8,29.88,WSW,238,0.0,0.0,71,0.00,,SKC,0.00,VWS V14.01,2013-03-24 07:25:00,
2013-03-24 03:30:00,42.5,33.8,29.87,WSW,238,0.0,0.0,71,0.00,,SKC,0.00,VWS V14.01,2013-03-24 07:30:00,
2013-03-24 03:35:00,42.5,34.1,29.87,WSW,238,0.0,0.0,72,0.00,,SKC,0.00,VWS V14.01,2013-03-24 07:35:00,
2013-03-24 03:40:00,42.5,34.1,29.86,WSW,238,0.0,0.0,72,0.00,,SKC,0.00,VWS V14.01,2013-03-24 07:40:00,
2013-03-24 03:45:00,42.5,34.1,29.85,WSW,238,0.0,0.0,72,0.00,,SKC,0.00,VWS V14.01,2013-03-24 07:45:00,
2013-03-24 03:50:00,42.3,33.9,29.84,WSW,238,0.0,0.0,72,0.00,,SKC,0.00,VWS V14.01,2013-03-24 07:50:00,
2013-03-24 03:55:00,42.2,34.2,29.84,WSW,238,0.0,0.0,73,0.00,,SKC,0.00,VWS V14.01,2013-03-24 07:55:00,
2013-03-24 04:02:00,42.0,34.0,29.83,WSW,238,0.0,0.0,73,0.00,,SKC,0.00,VWS V14.01,2013-03-24 08:02:00,
2013-03-24 04:08:00,41.9,33.9,29.84,WSW,238,0.0,0.0,73,0.00,,SKC,0.00,VWS V14.01,2013-03-24 08:08:00,
2013-03-24 04:14:00,41.7,33.7,29.84,WSW,238,0.0,0.0,73,0.00,,SKC,0.00,VWS V14.01,2013-03-24 08:14:00,
2013-03-24 04:20:00,41.6,33.9,29.83,WSW,238,0.0,0.0,74,0.00,,SKC,0.00,VWS V14.01,2013-03-24 08:20:00,
2013-03-24 04:25:00,41.5,34.2,29.83,WSW,238,0.0,0.0,75,0.00,,SKC,0.00,VWS V14.01,2013-03-24 08:25:00,
2013-03-24 04:30:00,41.5,34.5,29.82,WSW,238,0.0,0.0,76,0.00,,SKC,0.00,VWS V14.01,2013-03-24 08:30:00,
2013-03-24 04:35:00,41.5,34.5,29.81,NNW,347,0.0,0.0,76,0.00,,SKC,0.00,VWS V14.01,2013-03-24 08:35:00,
2013-03-24 04:42:00,41.6,33.9,29.81,NE,40,0.0,0.0,74,0.00,,SKC,0.00,VWS V14.01,2013-03-24 08:42:00,
2013-03-24 04:48:00,41.9,34.6,29.81,East,99,0.0,0.0,75,0.00,,SKC,0.00,VWS V14.01,2013-03-24 08:48:00,
2013-03-24 04:55:00,41.9,34.2,29.81,East,99,0.0,0.0,74,0.00,,SKC,0.00,VWS V14.01,2013-03-24 08:55:00,
2013-03-24 05:00:00,41.9,34.6,29.81,NW,309,0.0,0.0,75,0.00,,SKC,0.00,VWS V14.01,2013-03-24 09:00:00,
2013-03-24 05:05:00,42.0,34.3,29.80,NW,309,0.0,0.0,74,0.00,,SKC,0.00,VWS V14.01,2013-03-24 09:05:00,
2013-03-24 05:10:00,42.1,34.4,29.79,NW,309,0.0,0.0,74,0.00,,SKC,0.00,VWS V14.01,2013-03-24 09:10:00,
2013-03-24 05:15:00,42.2,34.5,29.79,NW,309,0.0,0.0,74,0.00,,SKC,0.00,VWS V14.01,2013-03-24 09:15:00,
2013-03-24 05:20:00,42.3,35.0,29.79,NW,309,0.0,0.0,75,0.00,,SKC,0.00,VWS V14.01,2013-03-24 09:20:00,
2013-03-24 05:25:00,42.2,34.9,29.80,NW,309,0.0,0.0,75,0.00,,SKC,0.00,VWS V14.01,2013-03-24 09:25:00,
2013-03-24 05:30:00,42.1,34.8,29.80,NW,309,0.0,0.0,75,0.00,,SKC,0.00,VWS V14.01,2013-03-24 09:30:00,
2013-03-24 05:35:00,42.0,35.0,29.80,NW,309,0.0,0.0,76,0.00,,SKC,0.00,VWS V14.01,2013-03-24 09:35:00,
2013-03-24 05:40:00,42.0,35.3,29.81,NW,309,0.0,0.0,77,0.00,,SKC,0.00,VWS V14.01,2013-03-24 09:40:00,
2013-03-24 05:45:00,41.9,34.9,29.81,NW,309,0.0,0.0,76,0.00,,SKC,0.00,VWS V14.01,2013-03-24 09:45:00,
2013-03-24 05:50:00,41.9,34.9,29.81,NW,309,0.0,0.0,76,0.00,,SKC,0.00,VWS V14.01,2013-03-24 09:50:00,
2013-03-24 05:55:00,41.8,34.8,29.81,NW,309,0.0,0.0,76,0.00,,SKC,0.00,VWS V14.01,2013-03-24 09:55:00,
2013-03-24 06:00:00,41.8,35.1,29.81,NW,309,0.0,0.0,77,0.00,,SKC,0.00,VWS V14.01,2013-03-24 10:00:00,
2013-03-24 06:05:00,41.7,35.4,29.81,NW,309,0.0,0.0,78,0.00,,SKC,0.00,VWS V14.01,2013-03-24 10:05:00,
2013-03-24 06:10:00,41.7,35.7,29.81,NW,309,0.0,0.0,79,0.00,,SKC,0.00,VWS V14.01,2013-03-24 10:10:00,
2013-03-24 06:15:00,41.6,36.2,29.81,NW,309,0.0,0.0,81,0.00,,SKC,0.00,VWS V14.01,2013-03-24 10:15:00,
2013-03-24 06:20:00,41.4,36.0,29.81,NNW,329,0.0,0.0,81,0.00,,SKC,0.00,VWS V14.01,2013-03-24 10:20:00,
2013-03-24 06:25:00,41.3,35.9,29.81,NNW,329,0.0,0.0,81,0.00,,SKC,0.00,VWS V14.01,2013-03-24 10:25:00,
2013-03-24 06:30:00,41.2,36.4,29.81,NNW,328,0.0,0.0,83,0.00,,SKC,0.00,VWS V14.01,2013-03-24 10:30:00,
2013-03-24 06:35:00,41.0,36.2,29.80,NNW,329,0.0,0.0,83,0.00,,SKC,0.00,VWS V14.01,2013-03-24 10:35:00,
2013-03-24 06:40:00,41.0,36.5,29.81,North,354,1.0,0.0,84,0.00,,SKC,0.00,VWS V14.01,2013-03-24 10:40:00,
2013-03-24 06:45:00,40.9,36.8,29.80,North,354,0.0,0.0,85,0.00,,SKC,0.00,VWS V14.01,2013-03-24 10:45:00,
2013-03-24 06:50:00,40.7,36.5,29.80,ENE,58,1.0,0.0,85,0.01,,SKC,0.01,VWS V14.01,2013-03-24 10:50:00,
2013-03-24 06:57:00,40.6,36.5,29.79,NNE,18,1.0,0.0,85,0.01,,SKC,0.01,VWS V14.01,2013-03-24 10:57:00,
2013-03-24 07:03:00,40.7,36.5,29.79,NE,37,1.0,0.0,85,0.01,,SKC,0.01,VWS V14.01,2013-03-24 11:03:00,
2013-03-24 07:09:00,40.7,36.5,29.80,NE,49,0.0,0.0,85,0.01,,SKC,0.01,VWS V14.01,2013-03-24 11:09:00,
2013-03-24 07:15:00,40.7,36.5,29.80,ENE,70,0.0,0.0,85,0.01,,SKC,0.01,VWS V14.01,2013-03-24 11:15:00,
2013-03-24 07:20:00,40.6,36.5,29.79,ENE,65,0.0,0.0,85,0.01,,SKC,0.01,VWS V14.01,2013-03-24 11:20:00,
2013-03-24 07:27:00,40.4,36.5,29.78,NE,43,0.0,0.0,86,0.01,,SKC,0.01,VWS V14.01,2013-03-24 11:27:00,
2013-03-24 07:33:00,40.3,36.5,29.78,North,4,1.0,0.0,86,0.01,,SKC,0.01,VWS V14.01,2013-03-24 11:33:00,
2013-03-24 07:39:00,40.1,36.5,29.77,NE,37,4.0,0.0,87,0.02,,SKC,0.02,VWS V14.01,2013-03-24 11:39:00,
2013-03-24 07:45:00,39.9,36.6,29.77,NNE,23,3.0,0.0,88,0.02,,SKC,0.02,VWS V14.01,2013-03-24 11:45:00,
2013-03-24 07:50:00,39.8,36.5,29.78,NE,41,2.0,0.0,88,0.02,,SKC,0.02,VWS V14.01,2013-03-24 11:50:00,
2013-03-24 07:55:00,39.7,36.7,29.78,North,356,2.0,0.0,89,0.02,,SKC,0.03,VWS V14.01,2013-03-24 11:55:00,
2013-03-24 08:00:00,39.5,36.5,29.76,North,8,3.0,0.0,89,0.03,,SKC,0.04,VWS V14.01,2013-03-24 12:00:00,
2013-03-24 08:05:00,39.3,36.3,29.75,North,7,2.0,0.0,89,0.04,,SKC,0.05,VWS V14.01,2013-03-24 12:05:00,
2013-03-24 08:10:00,39.2,36.5,29.75,NNE,13,2.0,0.0,90,0.04,,SKC,0.05,VWS V14.01,2013-03-24 12:10:00,
2013-03-24 08:15:00,39.0,36.6,29.74,North,359,3.0,0.0,91,0.05,,SKC,0.06,VWS V14.01,2013-03-24 12:15:00,
2013-03-24 08:20:00,38.7,36.3,29.75,North,6,2.0,0.0,91,0.06,,SKC,0.07,VWS V14.01,2013-03-24 12:20:00,
2013-03-24 08:25:00,38.4,35.7,29.75,NNE,20,4.0,0.0,90,0.06,,SKC,0.07,VWS V14.01,2013-03-24 12:25:00,
2013-03-24 08:30:00,38.1,35.4,29.75,ENE,58,2.0,0.0,90,0.06,,SKC,0.07,VWS V14.01,2013-03-24 12:30:00,
2013-03-24 08:35:00,37.9,35.2,29.74,NE,39,2.0,0.0,90,0.06,,SKC,0.07,VWS V14.01,2013-03-24 12:35:00,
2013-03-24 08:40:00,37.7,35.3,29.74,NNE,16,6.0,0.0,91,0.06,,SKC,0.07,VWS V14.01,2013-03-24 12:40:00,
2013-03-24 08:45:00,37.6,35.2,29.75,NW,325,2.0,0.0,91,0.06,,SKC,0.08,VWS V14.01,2013-03-24 12:45:00,
2013-03-24 08:50:00,37.5,35.4,29.76,NNW,347,2.0,0.0,92,0.06,,SKC,0.08,VWS V14.01,2013-03-24 12:50:00,
2013-03-24 08:55:00,37.2,35.1,29.76,North,351,3.0,0.0,92,0.07,,SKC,0.09,VWS V14.01,2013-03-24 12:55:00,
2013-03-24 09:00:00,37.0,34.9,29.77,NNE,23,4.0,0.0,92,0.07,,SKC,0.10,VWS V14.01,2013-03-24 13:00:00,
2013-03-24 09:05:00,36.9,35.1,29.78,NNE,26,3.0,0.0,93,0.08,,SKC,0.12,VWS V14.01,2013-03-24 13:05:00,
2013-03-24 09:10:00,36.7,34.9,29.79,NNW,346,3.0,0.0,93,0.08,,SKC,0.13,VWS V14.01,2013-03-24 13:10:00,
2013-03-24 09:16:00,36.6,34.8,29.79,NNW,337,3.0,0.0,93,0.09,,SKC,0.15,VWS V14.01,2013-03-24 13:16:00,
2013-03-24 09:23:00,36.5,34.7,29.80,North,360,1.0,0.0,93,0.09,,SKC,0.16,VWS V14.01,2013-03-24 13:23:00,
2013-03-24 09:29:00,36.3,34.7,29.81,North,5,2.0,0.0,94,0.11,,SKC,0.18,VWS V14.01,2013-03-24 13:29:00,
2013-03-24 09:35:00,36.3,34.7,29.81,NNE,12,2.0,0.0,94,0.12,,SKC,0.19,VWS V14.01,2013-03-24 13:35:00,
2013-03-24 09:40:00,36.2,34.6,29.80,North,349,3.0,0.0,94,0.14,,SKC,0.21,VWS V14.01,2013-03-24 13:40:00,
2013-03-24 09:45:00,36.0,34.4,29.80,NE,53,2.0,0.0,94,0.15,,SKC,0.22,VWS V14.01,2013-03-24 13:45:00,
2013-03-24 09:51:00,35.9,34.3,29.80,NE,41,2.0,0.0,94,0.15,,SKC,0.23,VWS V14.01,2013-03-24 13:51:00,
2013-03-24 09:57:00,35.9,34.3,29.78,NE,43,3.0,0.0,94,0.16,,SKC,0.25,VWS V14.01,2013-03-24 13:57:00,
2013-03-24 10:04:00,36.0,34.4,29.77,NNE,31,0.0,0.0,94,0.16,,SKC,0.26,VWS V14.01,2013-03-24 14:04:00,
2013-03-24 10:10:00,36.0,34.4,29.77,NE,40,3.0,0.0,94,0.15,,SKC,0.27,VWS V14.01,2013-03-24 14:10:00,
2013-03-24 10:15:00,36.0,34.4,29.76,NE,43,2.0,0.0,94,0.15,,SKC,0.28,VWS V14.01,2013-03-24 14:15:00,
2013-03-24 10:22:00,35.7,34.2,29.75,NE,37,2.0,0.0,94,0.12,,SKC,0.28,VWS V14.01,2013-03-24 14:22:00,
2013-03-24 10:28:00,35.6,34.0,29.75,NE,48,5.0,0.0,94,0.11,,SKC,0.28,VWS V14.01,2013-03-24 14:28:00,
2013-03-24 10:34:00,35.7,34.2,29.73,NNE,15,4.0,0.0,94,0.11,,SKC,0.29,VWS V14.01,2013-03-24 14:34:00,
2013-03-24 10:40:00,35.7,34.2,29.73,NNW,328,4.0,0.0,94,0.10,,SKC,0.29,VWS V14.01,2013-03-24 14:40:00,
2013-03-24 10:45:00,35.9,34.3,29.73,ENE,70,5.0,0.0,94,0.08,,SKC,0.29,VWS V14.01,2013-03-24 14:45:00,
2013-03-24 10:50:00,35.9,34.3,29.72,NE,40,4.0,0.0,94,0.07,,SKC,0.29,VWS V14.01,2013-03-24 14:50:00,
2013-03-24 10:57:00,36.0,34.4,29.74,NNW,329,6.0,0.0,94,0.05,,SKC,0.29,VWS V14.01,2013-03-24 14:57:00,
2013-03-24 11:03:00,35.9,34.3,29.75,North,356,4.0,0.0,94,0.04,,SKC,0.30,VWS V14.01,2013-03-24 15:03:00,
2013-03-24 11:09:00,35.9,34.3,29.75,NNW,346,5.0,0.0,94,0.03,,SKC,0.30,VWS V14.01,2013-03-24 15:09:00,
2013-03-24 11:15:00,36.0,34.4,29.75,NNE,22,2.0,0.0,94,0.04,,SKC,0.31,VWS V14.01,2013-03-24 15:15:00,
2013-03-24 11:20:00,36.0,34.4,29.73,NNE,15,2.0,0.0,94,0.03,,SKC,0.31,VWS V14.01,2013-03-24 15:20:00,
2013-03-24 11:25:00,36.0,34.7,29.74,NE,36,2.0,0.0,95,0.04,,SKC,0.32,VWS V14.01,2013-03-24 15:25:00,
2013-03-24 11:30:00,36.0,34.7,29.73,NE,51,5.0,0.0,95,0.05,,SKC,0.33,VWS V14.01,2013-03-24 15:30:00,
2013-03-24 11:35:00,36.0,34.7,29.73,NW,324,4.0,0.0,95,0.05,,SKC,0.33,VWS V14.01,2013-03-24 15:35:00,
2013-03-24 11:40:00,36.2,34.9,29.74,NE,43,2.0,0.0,95,0.04,,SKC,0.33,VWS V14.01,2013-03-24 15:40:00,
2013-03-24 11:45:00,36.1,34.8,29.73,NNE,13,2.0,0.0,95,0.05,,SKC,0.34,VWS V14.01,2013-03-24 15:45:00,
2013-03-24 11:51:00,36.1,34.8,29.73,NNW,342,6.0,0.0,95,0.06,,SKC,0.35,VWS V14.01,2013-03-24 15:51:00,
2013-03-24 11:57:00,36.3,35.0,29.73,North,359,2.0,0.0,95,0.07,,SKC,0.36,VWS V14.01,2013-03-24 15:57:00,
2013-03-24 12:04:00,36.4,35.1,29.72,NE,40,4.0,0.0,95,0.06,,SKC,0.36,VWS V14.01,2013-03-24 16:04:00,
2013-03-24 12:10:00,36.1,34.8,29.72,NNE,30,2.0,0.0,95,0.07,,SKC,0.37,VWS V14.01,2013-03-24 16:10:00,
2013-03-24 12:15:00,36.1,34.8,29.71,NE,37,3.0,0.0,95,0.08,,SKC,0.38,VWS V14.01,2013-03-24 16:15:00,
2013-03-24 12:20:00,36.1,34.8,29.69,NE,34,6.0,0.0,95,0.08,,SKC,0.39,VWS V14.01,2013-03-24 16:20:00,
2013-03-24 12:25:00,36.3,35.0,29.69,NNE,33,6.0,0.0,95,0.08,,SKC,0.39,VWS V14.01,2013-03-24 16:25:00,
2013-03-24 12:30:00,36.3,35.0,29.68,NNE,18,4.0,0.0,95,0.08,,SKC,0.40,VWS V14.01,2013-03-24 16:30:00,
2013-03-24 12:35:00,36.3,35.0,29.69,NNW,339,4.0,0.0,95,0.07,,SKC,0.40,VWS V14.01,2013-03-24 16:35:00,
2013-03-24 12:40:00,36.3,35.0,29.68,NNW,345,7.0,0.0,95,0.07,,SKC,0.40,VWS V14.01,2013-03-24 16:40:00,
2013-03-24 12:45:00,36.3,35.0,29.67,NNW,343,3.0,0.0,95,0.07,,SKC,0.40,VWS V14.01,2013-03-24 16:45:00,
2013-03-24 12:50:00,36.4,35.4,29.66,NE,52,4.0,0.0,96,0.06,,SKC,0.40,VWS V14.01,2013-03-24 16:50:00,
2013-03-24 12:55:00,36.3,35.0,29.66,NNE,21,3.0,0.0,95,0.06,,SKC,0.40,VWS V14.01,2013-03-24 16:55:00,
2013-03-24 13:00:00,36.3,35.0,29.67,NNW,338,6.0,0.0,95,0.06,,SKC,0.41,VWS V14.01,2013-03-24 17:00:00,
2013-03-24 13:05:00,36.3,35.0,29.68,NE,47,5.0,0.0,95,0.05,,SKC,0.41,VWS V14.01,2013-03-24 17:05:00,
2013-03-24 13:10:00,36.4,35.4,29.65,North,6,7.0,0.0,96,0.06,,SKC,0.42,VWS V14.01,2013-03-24 17:10:00,
2013-03-24 13:15:00,36.5,35.5,29.64,North,8,4.0,0.0,96,0.06,,SKC,0.43,VWS V14.01,2013-03-24 17:15:00,
2013-03-24 13:20:00,36.4,35.4,29.64,NNE,23,6.0,0.0,96,0.06,,SKC,0.44,VWS V14.01,2013-03-24 17:20:00,
2013-03-24 13:25:00,36.4,35.4,29.64,NNW,328,7.0,0.0,96,0.05,,SKC,0.44,VWS V14.01,2013-03-24 17:25:00,
2013-03-24 13:30:00,36.3,35.3,29.65,North,356,6.0,0.0,96,0.06,,SKC,0.45,VWS V14.01,2013-03-24 17:30:00,
2013-03-24 13:35:00,36.3,35.3,29.66,NNE,18,3.0,0.0,96,0.05,,SKC,0.45,VWS V14.01,2013-03-24 17:35:00,
2013-03-24 13:40:00,36.2,35.2,29.64,North,352,6.0,0.0,96,0.05,,SKC,0.45,VWS V14.01,2013-03-24 17:40:00,
2013-03-24 13:45:00,36.0,35.0,29.64,NE,35,6.0,0.0,96,0.06,,SKC,0.46,VWS V14.01,2013-03-24 17:45:00,
2013-03-24 13:50:00,35.9,34.9,29.64,NNW,340,3.0,0.0,96,0.06,,SKC,0.46,VWS V14.01,2013-03-24 17:50:00,
2013-03-24 13:55:00,35.8,34.8,29.63,North,349,3.0,0.0,96,0.07,,SKC,0.47,VWS V14.01,2013-03-24 17:55:00,
2013-03-24 14:00:00,35.8,34.8,29.62,North,352,2.0,0.0,96,0.07,,SKC,0.47,VWS V14.01,2013-03-24 18:00:00,
2013-03-24 14:05:00,35.8,34.8,29.63,NNW,327,3.0,0.0,96,0.07,,SKC,0.48,VWS V14.01,2013-03-24 18:05:00,
2013-03-24 14:10:00,35.6,34.6,29.62,North,352,4.0,0.0,96,0.08,,SKC,0.49,VWS V14.01,2013-03-24 18:10:00,
2013-03-24 14:15:00,35.6,34.6,29.61,NNE,15,4.0,0.0,96,0.08,,SKC,0.50,VWS V14.01,2013-03-24 18:15:00,
2013-03-24 14:20:00,35.7,34.7,29.61,NNE,16,3.0,0.0,96,0.08,,SKC,0.51,VWS V14.01,2013-03-24 18:20:00,
2013-03-24 14:27:00,35.6,34.6,29.61,NNW,331,3.0,0.0,96,0.08,,SKC,0.52,VWS V14.01,2013-03-24 18:27:00,
2013-03-24 14:34:00,35.6,34.6,29.60,NNW,340,7.0,0.0,96,0.08,,SKC,0.53,VWS V14.01,2013-03-24 18:34:00,
2013-03-24 14:40:00,35.5,34.5,29.59,NNE,12,3.0,0.0,96,0.10,,SKC,0.55,VWS V14.01,2013-03-24 18:40:00,
2013-03-24 14:45:00,35.4,34.4,29.59,NE,53,4.0,0.0,96,0.10,,SKC,0.55,VWS V14.01,2013-03-24 18:45:00,
2013-03-24 14:50:00,35.4,34.4,29.58,NNE,30,2.0,0.0,96,0.10,,SKC,0.56,VWS V14.01,2013-03-24 18:50:00,
2013-03-24 14:55:00,35.3,34.3,29.58,NNE,15,4.0,0.0,96,0.10,,SKC,0.56,VWS V14.01,2013-03-24 18:55:00,
2013-03-24 15:00:00,35.3,34.3,29.59,North,4,1.0,0.0,96,0.11,,SKC,0.58,VWS V14.01,2013-03-24 19:00:00,
2013-03-24 15:05:00,35.4,34.4,29.59,NE,46,1.0,0.0,96,0.13,,SKC,0.60,VWS V14.01,2013-03-24 19:05:00,
2013-03-24 15:10:00,35.5,34.5,29.59,NE,40,3.0,0.0,96,0.14,,SKC,0.62,VWS V14.01,2013-03-24 19:10:00,
2013-03-24 15:15:00,35.5,34.5,29.60,NNW,346,4.0,0.0,96,0.15,,SKC,0.64,VWS V14.01,2013-03-24 19:15:00,
2013-03-24 15:20:00,35.5,34.5,29.60,North,350,4.0,0.0,96,0.14,,SKC,0.64,VWS V14.01,2013-03-24 19:20:00,
2013-03-24 15:25:00,35.6,34.6,29.61,NW,311,3.0,0.0,96,0.14,,SKC,0.65,VWS V14.01,2013-03-24 19:25:00,
2013-03-24 15:30:00,35.5,34.5,29.62,NNW,347,3.0,0.0,96,0.14,,SKC,0.66,VWS V14.01,2013-03-24 19:30:00,
2013-03-24 15:35:00,35.4,34.4,29.63,North,11,3.0,0.0,96,0.15,,SKC,0.67,VWS V14.01,2013-03-24 19:35:00,
2013-03-24 15:40:00,35.4,34.4,29.63,NNW,338,2.0,0.0,96,0.14,,SKC,0.68,VWS V14.01,2013-03-24 19:40:00,
2013-03-24 15:45:00,35.5,34.5,29.63,NNW,334,5.0,0.0,96,0.14,,SKC,0.69,VWS V14.01,2013-03-24 19:45:00,
2013-03-24 15:50:00,35.5,34.5,29.63,North,8,3.0,0.0,96,0.14,,SKC,0.69,VWS V14.01,2013-03-24 19:50:00,
2013-03-24 15:55:00,35.7,34.9,29.63,North,360,2.0,0.0,97,0.14,,SKC,0.70,VWS V14.01,2013-03-24 19:55:00,
2013-03-24 16:00:00,35.7,34.9,29.62,NNW,340,6.0,0.0,97,0.14,,SKC,0.70,VWS V14.01,2013-03-24 20:00:00,
2013-03-24 16:05:00,35.6,34.6,29.61,North,350,3.0,0.0,96,0.13,,SKC,0.71,VWS V14.01,2013-03-24 20:05:00,
2013-03-24 16:10:00,35.5,34.5,29.60,North,6,12.0,0.0,96,0.11,,SKC,0.71,VWS V14.01,2013-03-24 20:10:00,
2013-03-24 16:15:00,35.8,35.0,29.59,ENE,75,2.0,0.0,97,0.09,,SKC,0.71,VWS V14.01,2013-03-24 20:15:00,
2013-03-24 16:20:00,36.0,35.0,29.59,NNE,25,3.0,0.0,96,0.07,,SKC,0.71,VWS V14.01,2013-03-24 20:20:00,
2013-03-24 16:26:00,36.2,35.2,29.58,ENE,58,2.0,0.0,96,0.06,,SKC,0.71,VWS V14.01,2013-03-24 20:26:00,
2013-03-24 16:32:00,36.5,35.7,29.58,NNE,13,1.0,0.0,97,0.05,,SKC,0.71,VWS V14.01,2013-03-24 20:32:00,
2013-03-24 16:38:00,36.5,35.5,29.58,North,5,3.0,0.0,96,0.04,,SKC,0.71,VWS V14.01,2013-03-24 20:38:00,
2013-03-24 16:44:00,36.4,35.4,29.58,ENE,62,7.0,0.0,96,0.03,,SKC,0.71,VWS V14.01,2013-03-24 20:44:00,
2013-03-24 16:50:00,36.1,34.8,29.58,NE,37,2.0,0.0,95,0.02,,SKC,0.71,VWS V14.01,2013-03-24 20:50:00,
2013-03-24 16:55:00,36.5,35.5,29.58,NNE,19,2.0,0.0,96,0.02,,SKC,0.71,VWS V14.01,2013-03-24 20:55:00,
2013-03-24 17:00:00,36.7,35.7,29.57,North,356,3.0,0.0,96,0.01,,SKC,0.71,VWS V14.01,2013-03-24 21:00:00,
2013-03-24 17:05:00,36.9,35.9,29.57,SE,138,1.0,0.0,96,0.01,,SKC,0.71,VWS V14.01,2013-03-24 21:05:00,
2013-03-24 17:10:00,37.0,35.7,29.56,North,11,1.0,0.0,95,0.00,,SKC,0.71,VWS V14.01,2013-03-24 21:10:00,
2013-03-24 17:17:00,37.1,35.8,29.56,North,3,8.0,0.0,95,0.00,,SKC,0.71,VWS V14.01,2013-03-24 21:17:00,
2013-03-24 17:23:00,36.9,35.3,29.56,NE,42,5.0,0.0,94,0.00,,SKC,0.71,VWS V14.01,2013-03-24 21:23:00,
2013-03-24 17:29:00,36.7,35.1,29.55,NNE,28,3.0,0.0,94,0.00,,SKC,0.71,VWS V14.01,2013-03-24 21:29:00,
2013-03-24 17:35:00,36.8,35.2,29.54,NNW,333,3.0,0.0,94,0.00,,SKC,0.71,VWS V14.01,2013-03-24 21:35:00,
2013-03-24 17:40:00,36.9,35.6,29.55,SE,139,1.0,0.0,95,0.00,,SKC,0.71,VWS V14.01,2013-03-24 21:40:00,
2013-03-24 17:45:00,36.8,35.2,29.54,NNE,29,2.0,0.0,94,0.00,,SKC,0.71,VWS V14.01,2013-03-24 21:45:00,
2013-03-24 17:51:00,36.8,35.5,29.54,WNW,297,2.0,0.0,95,0.00,,SKC,0.71,VWS V14.01,2013-03-24 21:51:00,
2013-03-24 17:57:00,36.5,34.9,29.52,NE,45,4.0,0.0,94,0.00,,SKC,0.71,VWS V14.01,2013-03-24 21:57:00,
2013-03-24 18:03:00,36.5,34.9,29.52,North,4,1.0,0.0,94,0.00,,SKC,0.71,VWS V14.01,2013-03-24 22:03:00,
2013-03-24 18:09:00,36.6,35.0,29.53,NW,321,3.0,0.0,94,0.00,,SKC,0.71,VWS V14.01,2013-03-24 22:09:00,
2013-03-24 18:15:00,36.6,35.0,29.54,NNE,20,1.0,0.0,94,0.00,,SKC,0.71,VWS V14.01,2013-03-24 22:15:00,
2013-03-24 18:20:00,36.5,34.9,29.55,ESE,105,1.0,0.0,94,0.00,,SKC,0.71,VWS V14.01,2013-03-24 22:20:00,
2013-03-24 18:25:00,36.5,35.2,29.55,NNE,18,1.0,0.0,95,0.00,,SKC,0.71,VWS V14.01,2013-03-24 22:25:00,
2013-03-24 18:31:00,36.3,34.7,29.55,NNE,30,2.0,0.0,94,0.00,,SKC,0.71,VWS V14.01,2013-03-24 22:31:00,
2013-03-24 18:37:00,36.3,34.7,29.55,ENE,65,2.0,0.0,94,0.00,,SKC,0.71,VWS V14.01,2013-03-24 22:37:00,
2013-03-24 18:43:00,36.3,34.7,29.54,NE,50,1.0,0.0,94,0.00,,SKC,0.71,VWS V14.01,2013-03-24 22:43:00,
2013-03-24 18:49:00,36.1,34.5,29.54,NNE,33,2.0,0.0,94,0.00,,SKC,0.71,VWS V14.01,2013-03-24 22:49:00,
2013-03-24 18:55:00,36.1,34.5,29.54,NE,37,1.0,0.0,94,0.00,,SKC,0.71,VWS V14.01,2013-03-24 22:55:00,
2013-03-24 19:00:00,36.0,34.4,29.54,North,8,1.0,0.0,94,0.00,,SKC,0.71,VWS V14.01,2013-03-24 23:00:00,
2013-03-24 19:06:00,36.0,34.4,29.55,NNE,19,1.0,0.0,94,0.00,,SKC,0.71,VWS V14.01,2013-03-24 23:06:00,
2013-03-24 19:12:00,35.9,34.3,29.56,North,1,1.0,0.0,94,0.00,,SKC,0.71,VWS V14.01,2013-03-24 23:12:00,
2013-03-24 19:18:00,35.9,34.6,29.57,NNW,345,2.0,0.0,95,0.00,,SKC,0.71,VWS V14.01,2013-03-24 23:18:00,
2013-03-24 19:24:00,35.9,34.6,29.57,ESE,103,0.0,0.0,95,0.00,,SKC,0.71,VWS V14.01,2013-03-24 23:24:00,
2013-03-24 19:30:00,35.8,34.5,29.57,NE,36,2.0,0.0,95,0.00,,SKC,0.71,VWS V14.01,2013-03-24 23:30:00,
2013-03-24 19:35:00,35.8,34.5,29.57,NNE,20,0.0,0.0,95,0.00,,SKC,0.71,VWS V14.01,2013-03-24 23:35:00,
2013-03-24 19:40:00,35.8,34.5,29.57,NNE,26,0.0,0.0,95,0.00,,SKC,0.71,VWS V14.01,2013-03-24 23:40:00,
2013-03-24 19:45:00,35.8,34.5,29.57,SE,125,0.0,0.0,95,0.00,,SKC,0.71,VWS V14.01,2013-03-24 23:45:00,
2013-03-24 19:52:00,35.7,34.4,29.58,NNE,27,2.0,0.0,95,0.00,,SKC,0.71,VWS V14.01,2013-03-24 23:52:00,
2013-03-24 19:58:00,35.7,34.4,29.58,ESE,106,0.0,0.0,95,0.00,,SKC,0.71,VWS V14.01,2013-03-24 23:58:00,
2013-03-24 20:04:00,35.7,34.4,29.59,ENE,78,1.0,0.0,95,0.00,,SKC,0.71,VWS V14.01,2013-03-25 00:04:00,
2013-03-24 20:10:00,35.6,34.0,29.60,North,358,2.0,0.0,94,0.00,,SKC,0.71,VWS V14.01,2013-03-25 00:10:00,
2013-03-24 20:15:00,35.6,34.3,29.60,NE,46,0.0,0.0,95,0.00,,SKC,0.71,VWS V14.01,2013-03-25 00:15:00,
2013-03-24 20:20:00,35.6,34.3,29.59,NE,43,2.0,0.0,95,0.00,,SKC,0.71,VWS V14.01,2013-03-25 00:20:00,
2013-03-24 20:25:00,35.6,34.3,29.59,NNE,23,1.0,0.0,95,0.00,,SKC,0.71,VWS V14.01,2013-03-25 00:25:00,
2013-03-24 20:30:00,35.6,34.3,29.59,East,90,1.0,0.0,95,0.00,,SKC,0.71,VWS V14.01,2013-03-25 00:30:00,
2013-03-24 20:35:00,35.6,34.3,29.59,NNW,342,0.0,0.0,95,0.00,,SKC,0.71,VWS V14.01,2013-03-25 00:35:00,
2013-03-24 20:40:00,35.6,34.3,29.59,North,8,0.0,0.0,95,0.00,,SKC,0.71,VWS V14.01,2013-03-25 00:40:00,
2013-03-24 20:45:00,35.5,34.2,29.59,NE,41,1.0,0.0,95,0.00,,SKC,0.71,VWS V14.01,2013-03-25 00:45:00,
2013-03-24 20:50:00,35.5,34.2,29.59,NNE,30,0.0,0.0,95,0.00,,SKC,0.71,VWS V14.01,2013-03-25 00:50:00,
2013-03-24 20:55:00,35.4,34.4,29.58,NNE,26,2.0,0.0,96,0.00,,SKC,0.71,VWS V14.01,2013-03-25 00:55:00,
2013-03-24 21:00:00,35.3,34.0,29.59,NE,47,3.0,0.0,95,0.00,,SKC,0.71,VWS V14.01,2013-03-25 01:00:00,
2013-03-24 21:06:00,35.2,34.2,29.60,NNW,333,2.0,0.0,96,0.00,,SKC,0.71,VWS V14.01,2013-03-25 01:06:00,
2013-03-24 21:12:00,35.1,34.1,29.60,NW,305,1.0,0.0,96,0.00,,SKC,0.71,VWS V14.01,2013-03-25 01:12:00,
2013-03-24 21:18:00,34.9,33.9,29.61,NNW,346,1.0,0.0,96,0.00,,SKC,0.71,VWS V14.01,2013-03-25 01:18:00,
2013-03-24 21:24:00,34.7,33.7,29.60,NW,318,1.0,0.0,96,0.00,,SKC,0.71,VWS V14.01,2013-03-25 01:24:00,
2013-03-24 21:30:00,34.5,33.5,29.60,NW,323,1.0,0.0,96,0.00,,SKC,0.71,VWS V14.01,2013-03-25 01:30:00,
2013-03-24 21:39:00,34.3,33.3,29.60,NNW,338,1.0,0.0,96,0.00,,SKC,0.71,VWS V14.01,2013-03-25 01:39:00,
2013-03-24 21:45:00,34.1,33.1,29.60,North,356,1.0,0.0,96,0.01,,SKC,0.72,VWS V14.01,2013-03-25 01:45:00,
2013-03-24 21:50:00,34.0,33.2,29.59,NNE,13,1.0,0.0,97,0.01,,SKC,0.72,VWS V14.01,2013-03-25 01:50:00,
2013-03-24 21:55:00,34.0,33.2,29.58,North,352,1.0,0.0,97,0.01,,SKC,0.72,VWS V14.01,2013-03-25 01:55:00,
2013-03-24 22:00:00,33.9,33.1,29.57,ENE,68,0.0,0.0,97,0.01,,SKC,0.72,VWS V14.01,2013-03-25 02:00:00,
2013-03-24 22:05:00,33.9,33.1,29.57,NNE,19,2.0,0.0,97,0.01,,SKC,0.72,VWS V14.01,2013-03-25 02:05:00,
2013-03-24 22:10:00,33.9,33.1,29.56,NE,40,2.0,0.0,97,0.01,,SKC,0.72,VWS V14.01,2013-03-25 02:10:00,
2013-03-24 22:15:00,33.9,33.1,29.55,NNE,17,4.0,0.0,97,0.01,,SKC,0.72,VWS V14.01,2013-03-25 02:15:00,
2013-03-24 22:20:00,33.9,33.1,29.55,NE,40,4.0,0.0,97,0.01,,SKC,0.72,VWS V14.01,2013-03-25 02:20:00,
2013-03-24 22:25:00,33.9,33.1,29.55,NNE,27,1.0,0.0,97,0.01,,SKC,0.72,VWS V14.01,2013-03-25 02:25:00,
2013-03-24 22:30:00,33.9,33.1,29.56,NNE,15,2.0,0.0,97,0.01,,SKC,0.72,VWS V14.01,2013-03-25 02:30:00,
2013-03-24 22:35:00,33.7,32.9,29.56,NNE,20,1.0,0.0,97,0.01,,SKC,0.72,VWS V14.01,2013-03-25 02:35:00,
2013-03-24 22:40:00,33.6,32.8,29.57,NE,42,2.0,0.0,97,0.01,,SKC,0.72,VWS V14.01,2013-03-25 02:40:00,
2013-03-24 22:45:00,33.5,32.7,29.56,SSE,162,0.0,0.0,97,0.01,,SKC,0.72,VWS V14.01,2013-03-25 02:45:00,
2013-03-24 22:50:00,33.5,32.7,29.57,NW,311,3.0,0.0,97,0.00,,SKC,0.72,VWS V14.01,2013-03-25 02:50:00,
2013-03-24 22:55:00,33.5,32.7,29.58,North,11,1.0,0.0,97,0.00,,SKC,0.72,VWS V14.01,2013-03-25 02:55:00,
2013-03-24 23:00:00,33.5,32.7,29.57,ENE,67,1.0,0.0,97,0.00,,SKC,0.72,VWS V14.01,2013-03-25 03:00:00,
2013-03-24 23:05:00,33.5,32.7,29.56,ENE,66,1.0,0.0,97,0.00,,SKC,0.72,VWS V14.01,2013-03-25 03:05:00,
2013-03-24 23:10:00,33.5,32.7,29.56,NE,53,0.0,0.0,97,0.00,,SKC,0.72,VWS V14.01,2013-03-25 03:10:00,
2013-03-24 23:15:00,33.5,32.7,29.56,NNW,346,2.0,0.0,97,0.00,,SKC,0.72,VWS V14.01,2013-03-25 03:15:00,
2013-03-24 23:20:00,33.3,32.5,29.55,NE,36,3.0,0.0,97,0.00,,SKC,0.72,VWS V14.01,2013-03-25 03:20:00,
2013-03-24 23:25:00,33.3,32.5,29.55,NE,43,2.0,0.0,97,0.00,,SKC,0.72,VWS V14.01,2013-03-25 03:25:00,
2013-03-24 23:30:00,33.2,32.4,29.56,North,11,0.0,0.0,97,0.00,,SKC,0.72,VWS V14.01,2013-03-25 03:30:00,
2013-03-24 23:35:00,33.3,32.5,29.55,NNE,21,3.0,0.0,97,0.00,,SKC,0.72,VWS V14.01,2013-03-25 03:35:00,
2013-03-24 23:40:00,33.2,32.4,29.55,North,5,1.0,0.0,97,0.00,,SKC,0.72,VWS V14.01,2013-03-25 03:40:00,
2013-03-24 23:45:00,33.2,32.4,29.55,NNE,19,0.0,0.0,97,0.00,,SKC,0.72,VWS V14.01,2013-03-25 03:45:00,
2013-03-24 23:50:00,33.1,32.3,29.56,NNW,339,1.0,0.0,97,0.00,,SKC,0.72,VWS V14.01,2013-03-25 03:50:00,
2013-03-24 23:55:00,33.2,32.4,29.56,North,1,0.0,0.0,97,0.00,,SKC,0.72,VWS V14.01,2013-03-25 03:55:00,